Location: Kavul?ru
(16.6288°N, 80.5832°E)
Time: 13:47:19
(UTC+00:00)

SEDSat Delta rocket - Pass Details

Date: 15 May 2026
Orbit: 529 x 962 km, 31.4° (Epoch: 11 June)

Event Time Altitude Azimuth Distance (km) Brightness Sun altitude
Exits shadow 21:58:54 56° 4° (N) 849 3.8 -28.3°
Maximum altitude 21:59:19 58° 25° (NNE) 828 3.8 -28.2°
Drops below altitude 10° 22:04:02 10° 105° (ESE) 2,046 6.2 -27.3°
Sets 22:06:17 0° 109° (ESE) 2,891 7.0 -26.8°
